{"data":{"norad_id":61220,"epoch":"2026-09-22T17:35:31.679520Z","epoch_age_seconds":101682,"freshness":"FRESH","line1":"1 61220U 24172A   26265.73300555  .00001169  00000+0  19266-3 0  9999","line2":"2 61220  98.0409 354.5842 0001732 151.2053 208.9250 14.72339081107422","mean_motion":14.72339081,"eccentricity":0.0001732,"inclination_deg":98.0409,"raan_deg":354.5842,"arg_perigee_deg":151.2053,"mean_anomaly_deg":208.925,"bstar":0.00019266,"rev_number":10742,"period_min":97.803557521679,"perigee_km":652.39282668503,"apogee_km":654.82862409711,"semimajor_km":7031.7477253911,"source":"CELESTRAK","updated_at":"2026-09-23T09:00:20.823813Z"}}